Weather History for KLKV - December, 2012

Change the Weather History Date:

Thursday, December 13, 2012

  Actual Average Record
Temperature  
Mean Temperature 22 °F -  
Max Temperature 33 °F 37 °F 54 °F (1936)
Min Temperature 10 °F 21 °F -1 °F (1932)
Degree Days  
Heating Degree Days 44    
Moisture  
Dew Point 21 °F    
Average Humidity 88    
Maximum Humidity 100    
Minimum Humidity 75    
Precipitation  
Precipitation 0.00 in - - ()
Sea Level Pressure  
Sea Level Pressure 29.83 in    
Wind  
Wind Speed 0 mph (North)    
Max Wind Speed 0 mph    
Max Gust Speed -    
Visibility 10 miles    
Events      
Averages and records for this station are not official NWS values.
T = Trace of Precipitation, MM = Missing Value Source: NWS Daily Summary

Daily Weather History Graph

Daily Weather History Graph

Search for Another Location

Airport or City:

Trip Planner

Search our weather history database for the weather conditions in past years. The results will help you decide how hot, cold, wet, or windy it might be!

Date:

Astronomy

Dec. 13, 2012 Rise Set
Actual Time 7:22 AM PST 4:30 PM PST
Civil Twilight 6:50 AM PST 5:01 PM PST
Nautical Twilight 6:15 AM PST 5:37 PM PST
Astronomical Twilight 5:40 AM PST 6:11 PM PST
Moon 7:35 AM PST (12/13) 5:18 PM PST (12/13)
Length of Visible Light 10h 11m
Length of Day
9h 07m
New Moon, 0% of the Moon is Illuminated
Dec 13
New Moon
Dec 19
First Quarter
Dec 28
Full
Jan 4
Last Quarter
Jan 11
New

Hourly Weather History & Observations

Time (PST) Temp. Dew Point Humidity Pressure Visibility Wind Dir Wind Speed Gust Speed Precip Events Conditions
12:15 AM 26.6 °F 23.0 °F 86% 29.83 in 10.0 mi Calm Calm - N/A   Overcast
12:35 AM 26.6 °F 23.0 °F 86% 29.83 in 10.0 mi Calm Calm - N/A   Overcast
12:55 AM 26.6 °F 24.8 °F 93% 29.83 in 10.0 mi Calm Calm - N/A   Overcast
1:15 AM 26.6 °F 23.0 °F 86% 29.83 in 10.0 mi Calm Calm - N/A   Overcast
1:35 AM 24.8 °F 23.0 °F 93% 29.84 in 10.0 mi Calm Calm - N/A   Overcast
1:55 AM 26.6 °F 23.0 °F 86% 29.84 in 10.0 mi Calm Calm - N/A   Overcast
2:15 AM 26.6 °F 24.8 °F 93% 29.84 in 10.0 mi Calm Calm - N/A   Overcast
2:35 AM 24.8 °F 21.2 °F 86% 29.84 in 10.0 mi Calm Calm - N/A   Mostly Cloudy
2:55 AM 23.0 °F 19.4 °F 86% 29.84 in 10.0 mi Calm Calm - N/A   Scattered Clouds
3:15 AM 24.8 °F 21.2 °F 86% 29.83 in 10.0 mi Calm Calm - N/A   Overcast
3:35 AM 24.8 °F 21.2 °F 86% 29.83 in 10.0 mi Calm Calm - N/A   Overcast
3:55 AM 24.8 °F 21.2 °F 86% 29.83 in 10.0 mi Calm Calm - N/A   Scattered Clouds
4:15 AM 23.0 °F 21.2 °F 93% 29.84 in 10.0 mi Calm Calm - N/A   Scattered Clouds
4:35 AM 24.8 °F 23.0 °F 93% 29.84 in 10.0 mi Calm Calm - N/A   Mostly Cloudy
4:55 AM 24.8 °F 21.2 °F 86% 29.84 in 10.0 mi Calm Calm - N/A   Overcast
5:15 AM 24.8 °F 21.2 °F 86% 29.84 in 10.0 mi Calm Calm - N/A   Scattered Clouds
5:35 AM 24.8 °F 21.2 °F 86% 29.84 in 10.0 mi Calm Calm - N/A   Mostly Cloudy
5:55 AM 24.8 °F 21.2 °F 86% 29.84 in 10.0 mi Calm Calm - N/A   Overcast
6:15 AM 24.8 °F 21.2 °F 86% 29.85 in 10.0 mi Calm Calm - N/A   Overcast
6:35 AM 24.8 °F 21.2 °F 86% 29.85 in 10.0 mi Calm Calm - N/A   Overcast
6:55 AM 24.8 °F 21.2 °F 86% 29.85 in 10.0 mi Calm Calm - N/A   Overcast
7:15 AM 23.0 °F 21.2 °F 93% 29.86 in 10.0 mi Calm Calm - N/A   Scattered Clouds
7:35 AM 23.0 °F 19.4 °F 86% 29.86 in 10.0 mi Calm Calm - N/A   Clear
7:55 AM 23.0 °F 19.4 °F 86% 29.86 in 10.0 mi Calm Calm - N/A   Clear
8:15 AM 23.0 °F 21.2 °F 93% 29.87 in 10.0 mi Calm Calm - N/A   Clear
8:35 AM 24.8 °F 21.2 °F 86% 29.87 in 10.0 mi Calm Calm - N/A   Clear
8:55 AM 24.8 °F 21.2 °F 86% 29.88 in 10.0 mi Calm Calm - N/A   Clear
9:15 AM 24.8 °F 21.2 °F 86% 29.88 in 10.0 mi Calm Calm - N/A   Partly Cloudy
9:35 AM 26.6 °F 23.0 °F 86% 29.89 in 10.0 mi Calm Calm - N/A   Partly Cloudy
9:55 AM 26.6 °F 23.0 °F 86% 29.89 in 10.0 mi Calm Calm - N/A   Clear
10:15 AM 26.6 °F 23.0 °F 86% 29.88 in 10.0 mi Calm Calm - N/A   Partly Cloudy
10:35 AM 26.6 °F 23.0 °F 86% 29.88 in 10.0 mi Calm Calm - N/A   Mostly Cloudy
10:55 AM 28.4 °F 24.8 °F 86% 29.87 in 10.0 mi Calm Calm - N/A   Mostly Cloudy
11:15 AM 28.4 °F 24.8 °F 86% 29.86 in 10.0 mi Calm Calm - N/A   Mostly Cloudy
11:35 AM 30.2 °F 26.6 °F 86% 29.85 in 10.0 mi Calm Calm - N/A   Mostly Cloudy
11:55 AM 30.2 °F 24.8 °F 80% 29.85 in 10.0 mi Calm Calm - N/A   Partly Cloudy
12:15 PM 30.2 °F 24.8 °F 80% 29.85 in 10.0 mi Calm Calm - N/A   Clear
12:35 PM 30.2 °F 26.6 °F 86% 29.84 in 10.0 mi Calm Calm - N/A   Partly Cloudy
12:55 PM 32.0 °F 26.6 °F 80% 29.83 in 10.0 mi Calm Calm - N/A   Mostly Cloudy
1:15 PM 32.0 °F 26.6 °F 80% 29.82 in 10.0 mi Calm Calm - N/A   Mostly Cloudy
1:35 PM 32.0 °F 26.6 °F 80% 29.82 in 10.0 mi Calm Calm - N/A   Clear
1:55 PM 32.0 °F 26.6 °F 80% 29.81 in 10.0 mi Calm Calm - N/A   Clear
2:15 PM 32.0 °F 26.6 °F 80% 29.80 in 10.0 mi Calm Calm - N/A   Clear
2:35 PM 33.8 °F 26.6 °F 75% 29.81 in 10.0 mi Calm Calm - N/A   Clear
5:15 PM 26.6 °F 24.8 °F 93% 29.81 in 10.0 mi Calm Calm - N/A   Overcast
5:35 PM 28.4 °F 24.8 °F 86% 29.81 in 10.0 mi Calm Calm - N/A   Overcast
5:55 PM 24.8 °F 21.2 °F 86% 29.81 in 10.0 mi Calm Calm - N/A   Scattered Clouds
6:15 PM 23.0 °F 21.2 °F 93% 29.81 in 10.0 mi Calm Calm - N/A   Clear
6:35 PM 19.4 °F 17.6 °F 93% 29.81 in 10.0 mi Calm Calm - N/A   Clear
6:55 PM 17.6 °F 12.2 °F 79% 29.80 in 10.0 mi Calm Calm - N/A   Clear
7:15 PM 17.6 °F 17.6 °F 100% 29.80 in 10.0 mi Calm Calm - N/A   Clear
7:35 PM 15.8 °F 12.2 °F 86% 29.80 in 10.0 mi Calm Calm - N/A   Clear
7:55 PM 14.0 °F 12.2 °F 93% 29.79 in 10.0 mi Calm Calm - N/A   Clear
8:15 PM 12.2 °F 10.4 °F 92% 29.78 in 10.0 mi Calm Calm - N/A   Clear
8:35 PM 12.2 °F 10.4 °F 92% 29.78 in 10.0 mi Calm Calm - N/A   Clear
8:55 PM 12.2 °F 10.4 °F 92% 29.77 in 10.0 mi Calm Calm - N/A   Clear
9:15 PM 10.4 °F 8.6 °F 92% 29.78 in 10.0 mi Calm Calm - N/A   Clear
9:35 PM 10.4 °F 8.6 °F 92% 29.78 in 10.0 mi Calm Calm - N/A   Clear
9:55 PM 10.4 °F 10.4 °F 100% 29.78 in 10.0 mi Calm Calm - N/A   Scattered Clouds
10:15 PM 14.0 °F 14.0 °F 100% 29.78 in 10.0 mi Calm Calm - N/A   Overcast
10:35 PM 17.6 °F 15.8 °F 93% 29.78 in 10.0 mi Calm Calm - N/A   Overcast
10:55 PM 17.6 °F 17.6 °F 100% 29.78 in 10.0 mi Calm Calm - N/A   Overcast
11:15 PM 19.4 °F 17.6 °F 93% 29.78 in 10.0 mi Calm Calm - N/A   Overcast
11:35 PM 19.4 °F 19.4 °F 100% 29.78 in 3.0 mi Calm Calm - N/A   Overcast
11:55 PM 21.2 °F 19.4 °F 93% 29.77 in 1.2 mi Calm Calm - N/A   Overcast